Date String (YYYY-MM-DD hh:mm:ss) UTC,Instrument flags,Ambient pressure (hPa),Sample flow (lpm),Bypass flow (lpm),Sample temperature (°C),Ambient temperature (°C),ASC tube jacket temperature (°C),LED temperature (°C),Box temperature (°C),Sample RH (%),Span deviation,Mass concentration (μg/m³),Mass concentration (μg/m³),Mass concentration (μg/m³)
DateTimeUTC,F1_M11,P_M11,Q1_M11,Q2_M11,T1_M11,T2_M11,T3_M11,T4_M11,T5_M11,U1_M11,ZSPAN_M11,X0_M11,X2_M11,X1_M11
2021-09-12 17:00:00,,0832.7,5.00,0.00,29.6,26.0,00.0,38.9,30.9,26.3,0001.1,0014.91,0007.13,0006.01
2021-09-12 17:01:00,,0832.7,5.00,0.00,29.6,26.4,00.0,38.8,31.0,26.7,0001.0,0014.17,0007.13,0006.00
2021-09-12 17:02:00,,0832.8,5.00,0.00,29.5,26.9,00.0,38.8,31.1,26.9,0001.2,0013.56,0007.15,0005.99
2021-09-12 17:03:00,,0832.8,5.00,0.00,29.5,27.3,00.0,38.7,31.2,26.8,0001.0,0013.77,0007.12,0005.98
2021-09-12 17:04:00,,0832.9,5.00,0.00,29.5,27.7,00.0,38.7,31.2,27.1,0000.8,0013.78,0007.15,0005.95
2021-09-12 17:05:00,,0832.8,5.01,0.00,29.6,28.0,00.0,38.7,31.3,27.4,0000.6,0013.76,0007.14,0005.92
2021-09-12 17:06:00,,0832.8,5.00,0.00,29.6,28.2,00.0,38.7,31.4,27.0,0000.7,0013.66,0007.16,0005.93
2021-09-12 17:07:00,,0832.9,4.99,0.00,29.6,28.4,00.0,38.7,31.4,26.8,0001.2,0014.35,0007.16,0005.92
2021-09-12 17:08:00,,0833.0,5.00,0.00,29.7,28.5,00.0,38.7,31.5,26.8,0001.4,0014.66,0007.14,0005.88
2021-09-12 17:09:00,,0833.0,5.00,0.00,29.7,28.7,00.0,38.7,31.5,26.8,0001.3,0015.43,0007.16,0005.87
2021-09-12 17:10:00,,0833.0,4.99,0.00,29.8,28.8,00.0,38.8,31.6,25.8,0001.3,0015.36,0007.18,0005.85
2021-09-12 17:11:00,,0833.1,5.02,0.00,29.8,28.9,00.0,38.8,31.6,25.5,0001.6,0014.69,0007.16,0005.82
2021-09-12 17:12:00,,0833.1,4.98,0.00,29.8,29.0,00.0,38.8,31.7,25.5,0001.9,0014.50,0007.13,0005.80
2021-09-12 17:13:00,,0833.1,5.00,0.00,29.9,29.0,00.0,38.8,31.7,25.0,0001.8,0015.26,0007.06,0005.78
2021-09-12 17:14:00,,0833.1,5.00,0.00,29.9,29.1,00.0,38.8,31.8,24.8,0001.9,0015.10,0007.03,0005.75
2021-09-12 17:15:00,,0833.0,4.99,0.00,30.0,29.2,00.0,38.9,31.8,24.9,0001.9,0015.01,0006.99,0005.72
2021-09-12 17:16:00,,0832.9,5.01,0.00,30.0,29.1,00.0,38.9,31.8,24.6,0002.0,0015.42,0006.93,0005.69
2021-09-12 17:17:00,,0832.8,5.00,0.00,29.9,27.6,00.0,38.9,31.5,24.5,0001.8,0015.22,0006.84,0005.64
2021-09-12 17:18:00,,0832.8,5.01,0.00,29.8,26.7,00.0,38.9,31.2,24.8,0001.1,0014.65,0006.80,0005.61
2021-09-12 17:19:00,,0832.8,5.00,0.00,29.8,26.9,00.0,38.9,31.3,25.4,0000.3,0014.92,0006.81,0005.61
2021-09-12 17:20:00,,0832.8,5.01,0.00,29.7,27.3,00.0,38.9,31.3,25.3,0000.0,0014.15,0006.76,0005.56
2021-09-12 17:21:00,,0832.8,4.98,0.00,29.7,27.6,00.0,38.8,31.4,25.4,0000.1,0013.98,0006.73,0005.53
2021-09-12 17:22:00,,0832.8,5.01,0.00,29.7,27.9,00.0,38.8,31.4,25.2,0000.0,0014.02,0006.76,0005.52
2021-09-12 17:23:00,,0832.8,4.99,0.00,29.7,28.2,00.0,38.8,31.5,25.0,-000.0,0014.64,0006.73,0005.47
2021-09-12 17:24:00,,0832.9,5.01,0.00,29.8,28.4,00.0,38.8,31.5,25.1,-000.1,0014.33,0006.71,0005.46
2021-09-12 17:25:00,,0832.8,5.00,0.00,29.8,28.6,00.0,38.8,31.6,25.3,-000.3,0013.60,0006.63,0005.42
2021-09-12 17:26:00,,0832.8,5.00,0.00,29.8,28.7,00.0,38.8,31.7,25.3,-000.2,0013.50,0006.57,0005.40
2021-09-12 17:27:00,,0832.8,5.00,0.00,29.9,28.8,00.0,38.9,31.7,25.4,-000.1,0013.35,0006.58,0005.39
2021-09-12 17:28:00,,0832.8,4.99,0.00,29.9,29.0,00.0,38.9,31.8,25.4,-000.2,0013.42,0006.59,0005.35
2021-09-12 17:29:00,,0832.8,5.01,0.00,30.0,29.0,00.0,38.9,31.8,25.7,0000.0,0013.45,0006.49,0005.31
2021-09-12 17:30:00,,0832.7,5.01,0.00,30.0,28.9,00.0,38.9,31.8,25.1,0001.0,0012.59,0006.35,0005.24
2021-09-12 17:31:00,,0832.8,5.00,0.00,29.9,27.4,00.0,38.9,31.4,25.4,0001.7,0012.52,0006.27,0005.22
2021-09-12 17:32:00,,0832.8,4.99,0.00,29.8,26.0,00.0,38.9,31.0,25.9,0001.5,0013.41,0006.24,0005.21
2021-09-12 17:33:00,,0832.7,5.00,0.00,29.6,26.2,00.0,38.9,31.0,26.3,0001.1,0014.56,0006.18,0005.21
2021-09-12 17:34:00,,0832.8,5.01,0.00,29.6,26.6,00.0,38.8,31.1,26.4,0000.8,0013.85,0006.13,0005.20
2021-09-12 17:35:00,,0832.8,5.00,0.00,29.6,27.1,00.0,38.8,31.1,25.9,0000.9,0013.34,0006.10,0005.18
2021-09-12 17:36:00,,0832.8,4.99,0.00,29.6,27.5,00.0,38.8,31.2,25.4,0001.3,0013.31,0006.08,0005.15
2021-09-12 17:37:00,,0832.8,5.01,0.00,29.6,27.8,00.0,38.7,31.3,25.3,0001.5,0013.30,0006.02,0005.10
2021-09-12 17:38:00,,0832.8,4.98,0.00,29.6,28.1,00.0,38.7,31.4,24.7,0001.7,0012.91,0005.90,0005.05
2021-09-12 17:39:00,,0832.7,5.01,0.00,29.7,28.3,00.0,38.7,31.5,25.0,0001.9,0012.77,0005.85,0005.00
2021-09-12 17:40:00,,0832.7,5.00,0.00,29.7,28.5,00.0,38.7,31.5,23.9,0001.9,0012.52,0005.81,0004.95
2021-09-12 17:41:00,,0832.8,5.00,0.00,29.7,28.7,00.0,38.8,31.6,25.3,0001.4,0012.55,0005.78,0004.91
2021-09-12 17:42:00,,0832.8,4.98,0.00,29.8,28.8,00.0,38.8,31.6,24.9,0001.0,0012.32,0005.75,0004.87
2021-09-12 17:43:00,,0832.7,5.00,0.00,29.8,28.9,00.0,38.8,31.7,25.0,0001.4,0011.43,0005.68,0004.81
2021-09-12 17:44:00,,0832.8,4.99,0.00,29.9,29.1,00.0,38.8,31.8,24.5,0001.7,0010.42,0005.62,0004.73
2021-09-12 17:45:00,,0832.8,5.01,0.00,29.9,29.2,00.0,38.8,31.9,23.7,0001.9,0010.44,0005.57,0004.66
2021-09-12 17:46:00,,0832.8,4.99,0.00,30.0,28.4,00.0,38.9,31.7,24.2,0002.1,0010.45,0005.51,0004.59
2021-09-12 17:47:00,,0832.8,5.00,0.00,29.8,26.6,00.0,38.8,31.2,23.9,0002.0,0010.40,0005.44,0004.54
2021-09-12 17:48:00,,0832.8,5.00,0.00,29.7,26.2,00.0,38.8,31.0,24.3,0001.8,0010.47,0005.40,0004.50
2021-09-12 17:49:00,,0832.8,5.01,0.00,29.6,26.6,00.0,38.8,31.1,25.4,0001.8,0010.55,0005.39,0004.49
2021-09-12 17:50:00,,0832.8,4.99,0.00,29.6,27.0,00.0,38.8,31.2,25.3,0002.1,0010.59,0005.41,0004.50
2021-09-12 17:51:00,,0832.7,4.99,0.00,29.6,27.4,00.0,38.7,31.3,23.8,0002.3,0010.59,0005.41,0004.50
2021-09-12 17:52:00,,0832.7,5.01,0.00,29.6,27.8,00.0,38.7,31.3,23.4,0002.2,0010.56,0005.39,0004.47
2021-09-12 17:53:00,,0832.7,4.99,0.00,29.6,28.1,00.0,38.7,31.4,23.9,0002.3,0010.78,0005.34,0004.42
2021-09-12 17:54:00,,0832.7,5.00,0.00,29.7,28.4,00.0,38.7,31.5,24.3,0002.1,0010.92,0005.33,0004.41
2021-09-12 17:55:00,,0832.6,5.01,0.00,29.7,28.6,00.0,38.7,31.6,25.0,0002.2,0011.11,0005.33,0004.42
2021-09-12 17:56:00,,0832.6,4.99,0.00,29.8,28.8,00.0,38.7,31.6,25.0,0002.2,0010.99,0005.33,0004.44
2021-09-12 17:57:00,,0832.5,4.99,0.00,29.8,28.9,00.0,38.8,31.7,24.8,0002.1,0011.13,0005.37,0004.48
2021-09-12 17:58:00,,0832.5,5.01,0.00,29.9,29.0,00.0,38.8,31.8,24.5,0002.3,0011.16,0005.40,0004.50
2021-09-12 17:59:00,,0832.5,5.00,0.00,29.9,29.2,00.0,38.8,31.8,24.3,0002.1,0011.10,0005.45,0004.50
